| time (UTC) | temp C | wind direction | speed KPH | gust KPH | rain 1hr cm | rain 24hr cm | rain mn cm | humidity % | barometer mb |
| 20260507135044 | 11 | 191 | 4.8 | 14.5 | 0.00 | 0.00 | 0.00 | 64 | 1012.4 |
| 20260507134556 | 11 | 242 | 4.8 | 12.9 | 0.00 | 0.00 | 0.00 | 66 | 1012.4 |
| 20260507134042 | 11 | 256 | 3.2 | 12.9 | 0.00 | 0.00 | 0.00 | 66 | 1012.4 |
| 20260507133543 | 10 | 257 | 3.2 | 12.9 | 0.00 | 0.00 | 0.00 | 68 | 1012.4 |
| 20260507133055 | 10 | 182 | 1.6 | 12.9 | 0.00 | 0.00 | 0.00 | 69 | 1012.5 |
| 20260507132544 | 10 | 229 | 6.4 | 12.9 | 0.00 | 0.00 | 0.00 | 69 | 1012.5 |
| 20260507132043 | 10 | 198 | 4.8 | 12.9 | 0.00 | 0.00 | 0.00 | 71 | 1012.4 |
| 20260507131556 | 10 | 249 | 3.2 | 16.1 | 0.00 | 0.00 | 0.00 | 71 | 1012.6 |
| 20260507131044 | 9 | 214 | 3.2 | 16.1 | 0.00 | 0.00 | 0.00 | 72 | 1012.5 |
| 20260507130543 | 9 | 237 | 3.2 | 9.7 | 0.00 | 0.00 | 0.00 | 73 | 1012.5 |
| 20260507130104 | 8 | 270 | 3.2 | 12.9 | 0.00 | 0.00 | 0.00 | 74 | 1012.5 |
| 20260507125542 | 8 | 225 | 3.2 | 14.5 | 0.00 | 0.00 | 0.00 | 74 | 1012.6 |
| 20260507125041 | 8 | 203 | 4.8 | 14.5 | 0.00 | 0.00 | 0.00 | 75 | 1012.6 |
| 20260507124553 | 8 | 262 | 1.6 | 9.7 | 0.00 | 0.00 | 0.00 | 76 | 1012.6 |
| 20260507124046 | 8 | 287 | 1.6 | 9.7 | 0.00 | 0.00 | 0.00 | 77 | 1012.5 |
| 20260507123544 | 7 | 262 | 4.8 | 9.7 | 0.00 | 0.00 | 0.00 | 78 | 1012.6 |
| 20260507123050 | 7 | 243 | 0.0 | 6.4 | 0.00 | 0.00 | 0.00 | 78 | 1012.6 |
| 20260507122541 | 7 | 0 | 0.0 | 6.4 | 0.00 | 0.00 | 0.00 | 79 | 1012.7 |
| 20260507122044 | 7 | 214 | 0.0 | 6.4 | 0.00 | 0.00 | 0.00 | 79 | 1012.7 |
| 20260507121552 | 6 | 243 | 0.0 | 6.4 | 0.00 | 0.00 | 0.00 | 80 | 1012.7 |
| 20260507121042 | 6 | 0 | 0.0 | 3.2 | 0.00 | 0.00 | 0.00 | 80 | 1012.7 |
| 20260507120541 | 6 | 173 | 0.0 | 3.2 | 0.00 | 0.00 | 0.00 | 80 | 1012.7 |
| 20260507120050 | 6 | 193 | 0.0 | 3.2 | 0.00 | 0.00 | 0.00 | 80 | 1012.7 |
| 20260507115544 | 6 | 0 | 0.0 | 3.2 | 0.00 | 0.00 | 0.00 | 80 | 1012.6 |
| 20260507115043 | 6 | 0 | 0.0 | 4.8 | 0.00 | 0.00 | 0.00 | 80 | 1012.6 |
| 20260507114556 | 6 | 214 | 0.0 | 4.8 | 0.00 | 0.00 | 0.00 | 80 | 1012.5 |
| 20260507114044 | 6 | 0 | 0.0 | 6.4 | 0.00 | 0.00 | 0.00 | 79 | 1012.5 |
| 20260507113542 | 6 | 0 | 1.6 | 6.4 | 0.00 | 0.00 | 0.00 | 79 | 1012.6 |
| 20260507113045 | 6 | 0 | 1.6 | 6.4 | 0.00 | 0.00 | 0.00 | 79 | 1012.5 |
| 20260507112542 | 6 | 247 | 1.6 | 6.4 | 0.00 | 0.00 | 0.00 | 79 | 1012.6 |
| 20260507112042 | 6 | 0 | 1.6 | 6.4 | 0.00 | 0.00 | 0.00 | 78 | 1012.6 |
| 20260507111551 | 6 | 274 | 1.6 | 4.8 | 0.00 | 0.00 | 0.00 | 78 | 1012.7 |
| 20260507111047 | 6 | 239 | 0.0 | 4.8 | 0.00 | 0.00 | 0.00 | 78 | 1012.7 |
| 20260507110542 | 6 | 243 | 1.6 | 8.0 | 0.00 | 0.00 | 0.00 | 78 | 1012.5 |
| 20260507110053 | 6 | 0 | 1.6 | 8.0 | 0.00 | 0.00 | 0.00 | 78 | 1012.5 |
| 20260507105540 | 6 | 259 | 1.6 | 4.8 | 0.00 | 0.00 | 0.00 | 78 | 1012.4 |
| 20260507105044 | 6 | 224 | 1.6 | 8.0 | 0.00 | 0.00 | 0.00 | 78 | 1012.4 |
| 20260507104556 | 6 | 208 | 1.6 | 9.7 | 0.00 | 0.00 | 0.00 | 77 | 1012.3 |
| 20260507104047 | 6 | 224 | 1.6 | 9.7 | 0.00 | 0.00 | 0.00 | 77 | 1012.4 |
| 20260507103542 | 6 | 231 | 3.2 | 9.7 | 0.00 | 0.00 | 0.00 | 77 | 1012.5 |
| 20260507103049 | 6 | 214 | 1.6 | 9.7 | 0.00 | 0.00 | 0.00 | 77 | 1012.5 |
| 20260507102541 | 6 | 217 | 1.6 | 9.7 | 0.00 | 0.00 | 0.00 | 77 | 1012.4 |
| 20260507102046 | 7 | 205 | 0.0 | 8.0 | 0.00 | 0.00 | 0.00 | 76 | 1012.4 |
| 20260507101552 | 7 | 217 | 0.0 | 8.0 | 0.00 | 0.00 | 0.00 | 76 | 1012.5 |
| 20260507101050 | 7 | 258 | 0.0 | 6.4 | 0.00 | 0.00 | 0.00 | 76 | 1012.5 |
| 20260507100545 | 7 | 217 | 1.6 | 6.4 | 0.00 | 0.00 | 0.00 | 76 | 1012.6 |
| 20260507100054 | 7 | 204 | 1.6 | 6.4 | 0.00 | 0.00 | 0.00 | 76 | 1012.5 |
| 20260507095542 | 7 | 0 | 1.6 | 8.0 | 0.00 | 0.00 | 0.00 | 75 | 1012.6 |
| 20260507095044 | 7 | 0 | 1.6 | 8.0 | 0.00 | 0.00 | 0.00 | 75 | 1012.6 |
| 20260507094554 | 7 | 257 | 0.0 | 4.8 | 0.00 | 0.00 | 0.00 | 74 | 1012.8 |
| 20260507094045 | 7 | 235 | 0.0 | 4.8 | 0.00 | 0.00 | 0.00 | 74 | 1012.8 |
| 20260507093544 | 7 | 0 | 1.6 | 4.8 | 0.00 | 0.00 | 0.00 | 74 | 1012.8 |
| 20260507093058 | 7 | 210 | 0.0 | 6.4 | 0.00 | 0.00 | 0.00 | 73 | 1013.0 |
| 20260507092544 | 7 | 0 | 0.0 | 6.4 | 0.00 | 0.00 | 0.00 | 73 | 1012.9 |
| 20260507092045 | 7 | 230 | 0.0 | 6.4 | 0.00 | 0.00 | 0.00 | 73 | 1013.0 |
| 20260507091558 | 7 | 221 | 1.6 | 6.4 | 0.00 | 0.00 | 0.00 | 73 | 1013.0 |
| 20260507091044 | 7 | 248 | 3.2 | 9.7 | 0.00 | 0.00 | 0.00 | 72 | 1013.1 |
| 20260507090548 | 7 | 0 | 1.6 | 9.7 | 0.00 | 0.00 | 0.00 | 72 | 1013.1 |
| 20260507090050 | 7 | 269 | 1.6 | 6.4 | 0.00 | 0.00 | 0.00 | 71 | 1013.3 |
| 20260507085543 | 7 | 248 | 1.6 | 12.9 | 0.00 | 0.00 | 0.00 | 71 | 1013.2 |
| 20260507085047 | 7 | 259 | 1.6 | 12.9 | 0.00 | 0.00 | 0.00 | 70 | 1013.3 |
| 20260507084551 | 7 | 232 | 1.6 | 12.9 | 0.00 | 0.00 | 0.00 | 70 | 1013.3 |
| 20260507084045 | 7 | 253 | 1.6 | 6.4 | 0.00 | 0.00 | 0.00 | 70 | 1013.4 |
| 20260507083543 | 7 | 224 | 0.0 | 6.4 | 0.00 | 0.00 | 0.00 | 69 | 1013.5 |
| 20260507083057 | 7 | 0 | 1.6 | 6.4 | 0.00 | 0.00 | 0.00 | 69 | 1013.4 |
| 20260507082548 | 7 | 215 | 1.6 | 4.8 | 0.00 | 0.00 | 0.00 | 68 | 1013.6 |
| 20260507082045 | 7 | 236 | 0.0 | 4.8 | 0.00 | 0.00 | 0.00 | 67 | 1013.6 |
| 20260507081551 | 7 | 250 | 0.0 | 6.4 | 0.00 | 0.00 | 0.00 | 67 | 1013.7 |
| 20260507081044 | 7 | 211 | 1.6 | 6.4 | 0.00 | 0.00 | 0.00 | 66 | 1013.7 |
| 20260507080546 | 7 | 212 | 0.0 | 4.8 | 0.00 | 0.00 | 0.00 | 66 | 1013.8 |
| 20260507080053 | 7 | 249 | 0.0 | 4.8 | 0.00 | 0.00 | 0.00 | 66 | 1013.8 |
| 20260507075544 | 7 | 245 | 0.0 | 4.8 | 0.00 | 0.00 | 0.00 | 66 | 1013.8 |
| 20260507075048 | 7 | 227 | 0.0 | 4.8 | 0.00 | 0.00 | 0.00 | 65 | 1013.9 |
| 20260507074550 | 7 | 214 | 0.0 | 4.8 | 0.00 | 0.00 | 0.00 | 65 | 1013.9 |
| 20260507074043 | 7 | 214 | 0.0 | 4.8 | 0.00 | 0.00 | 0.00 | 64 | 1013.9 |
| 20260507073545 | 7 | 240 | 0.0 | 4.8 | 0.00 | 0.00 | 0.00 | 64 | 1014.0 |
| 20260507073101 | 7 | 207 | 0.0 | 3.2 | 0.00 | 0.00 | 0.00 | 64 | 1014.1 |
| 20260507072545 | 7 | 0 | 0.0 | 3.2 | 0.00 | 0.00 | 0.00 | 63 | 1014.1 |
| 20260507072048 | 7 | 212 | 0.0 | 1.6 | 0.00 | 0.00 | 0.00 | 63 | 1014.2 |
| 20260507071616 | 6 | 217 | 0.0 | 1.6 | 0.00 | 0.00 | 0.00 | 63 | 1014.2 |
| 20260507071043 | 6 | 0 | 0.0 | 1.6 | 0.00 | 0.00 | 0.00 | 62 | 1014.4 |
| 20260507070540 | 6 | 0 | 0.0 | 1.6 | 0.00 | 0.00 | 0.00 | 62 | 1014.4 |
| 20260507070100 | 6 | 0 | 0.0 | 1.6 | 0.00 | 0.00 | 0.00 | 62 | 1014.5 |
| 20260507065544 | 6 | 0 | 0.0 | 1.6 | 0.00 | 0.00 | 0.00 | 61 | 1014.6 |
| 20260507065040 | 6 | 0 | 0.0 | 1.6 | 0.00 | 0.00 | 0.00 | 61 | 1014.6 |
| 20260507064551 | 6 | 0 | 0.0 | 0.0 | 0.00 | 0.00 | 0.00 | 61 | 1014.7 |
| 20260507064044 | 6 | 0 | 0.0 | 0.0 | 0.00 | 0.00 | 0.00 | 61 | 1014.7 |
| 20260507063545 | 6 | 0 | 0.0 | 0.0 | 0.00 | 0.00 | 0.00 | 62 | 1014.8 |
| 20260507063100 | 6 | 0 | 0.0 | 0.0 | 0.00 | 0.00 | 0.00 | 62 | 1014.8 |
| 20260507062542 | 6 | 0 | 0.0 | 0.0 | 0.00 | 0.00 | 0.00 | 63 | 1015.0 |
| 20260507062042 | 6 | 0 | 0.0 | 0.0 | 0.00 | 0.00 | 0.00 | 62 | 1015.0 |
| 20260507061558 | 6 | 0 | 0.0 | 0.0 | 0.00 | 0.00 | 0.00 | 62 | 1015.1 |
| 20260507061042 | 6 | 0 | 0.0 | 0.0 | 0.00 | 0.00 | 0.00 | 62 | 1015.0 |
| 20260507060541 | 6 | 0 | 0.0 | 0.0 | 0.00 | 0.00 | 0.00 | 63 | 1015.2 |
| 20260507060058 | 5 | 0 | 0.0 | 0.0 | 0.00 | 0.00 | 0.00 | 65 | 1015.2 |
| 20260507055545 | 5 | 0 | 0.0 | 0.0 | 0.00 | 0.00 | 0.00 | 66 | 1015.1 |
| 20260507055044 | 6 | 0 | 0.0 | 0.0 | 0.00 | 0.00 | 0.00 | 68 | 1015.2 |
| 20260507054552 | 6 | 0 | 0.0 | 0.0 | 0.00 | 0.00 | 0.00 | 67 | 1015.2 |
| 20260507054043 | 6 | 0 | 0.0 | 0.0 | 0.00 | 0.00 | 0.00 | 67 | 1015.2 |
| 20260507053540 | 6 | 0 | 0.0 | 0.0 | 0.00 | 0.00 | 0.00 | 66 | 1015.2 |
| 20260507053057 | 6 | 0 | 0.0 | 0.0 | 0.00 | 0.00 | 0.00 | 63 | 1015.1 |
| 20260507052540 | 6 | 0 | 0.0 | 0.0 | 0.00 | 0.00 | 0.00 | 63 | 1015.1 |
| 20260507052042 | 6 | 0 | 0.0 | 0.0 | 0.00 | 0.00 | 0.00 | 64 | 1015.2 |
| 20260507051555 | 6 | 0 | 0.0 | 0.0 | 0.00 | 0.00 | 0.00 | 64 | 1015.3 |
| 20260507051042 | 6 | 0 | 0.0 | 0.0 | 0.00 | 0.00 | 0.00 | 64 | 1015.3 |
| 20260507050543 | 6 | 0 | 0.0 | 0.0 | 0.00 | 0.00 | 0.00 | 64 | 1015.4 |
| 20260507050056 | 6 | 0 | 0.0 | 0.0 | 0.00 | 0.00 | 0.00 | 64 | 1015.3 |
| 20260507045542 | 6 | 0 | 0.0 | 0.0 | 0.00 | 0.00 | 0.00 | 62 | 1015.3 |
| 20260507045045 | 6 | 0 | 0.0 | 0.0 | 0.00 | 0.00 | 0.00 | 63 | 1015.3 |
| 20260507044601 | 6 | 0 | 0.0 | 0.0 | 0.00 | 0.00 | 0.00 | 62 | 1015.4 |
| 20260507044043 | 6 | 0 | 0.0 | 0.0 | 0.00 | 0.00 | 0.00 | 63 | 1015.5 |
| 20260507043543 | 6 | 0 | 0.0 | 0.0 | 0.00 | 0.00 | 0.00 | 62 | 1015.5 |
| 20260507043058 | 6 | 0 | 0.0 | 0.0 | 0.00 | 0.00 | 0.00 | 62 | 1015.5 |
| 20260507042544 | 6 | 0 | 0.0 | 0.0 | 0.00 | 0.00 | 0.00 | 61 | 1015.5 |
| 20260507042044 | 7 | 0 | 0.0 | 0.0 | 0.00 | 0.00 | 0.00 | 60 | 1015.5 |
| 20260507041551 | 7 | 0 | 0.0 | 0.0 | 0.00 | 0.00 | 0.00 | 61 | 1015.6 |
| 20260507041042 | 7 | 0 | 0.0 | 0.0 | 0.00 | 0.00 | 0.00 | 59 | 1015.6 |
| 20260507040543 | 7 | 0 | 0.0 | 0.0 | 0.00 | 0.00 | 0.00 | 58 | 1015.6 |
| 20260507040048 | 7 | 0 | 0.0 | 0.0 | 0.00 | 0.00 | 0.00 | 57 | 1015.7 |
| 20260507035543 | 7 | 0 | 0.0 | 0.0 | 0.00 | 0.00 | 0.00 | 57 | 1015.6 |
| 20260507035043 | 7 | 0 | 0.0 | 0.0 | 0.00 | 0.00 | 0.00 | 55 | 1015.7 |
| 20260507034556 | 7 | 0 | 0.0 | 0.0 | 0.00 | 0.00 | 0.00 | 56 | 1015.7 |
| 20260507034044 | 7 | 0 | 0.0 | 0.0 | 0.00 | 0.00 | 0.00 | 56 | 1015.8 |
| 20260507033546 | 7 | 0 | 0.0 | 0.0 | 0.00 | 0.00 | 0.00 | 57 | 1015.9 |
| 20260507033054 | 7 | 0 | 0.0 | 0.0 | 0.00 | 0.00 | 0.00 | 54 | 1015.8 |
| 20260507032544 | 7 | 0 | 0.0 | 0.0 | 0.00 | 0.00 | 0.00 | 55 | 1015.9 |
| 20260507032041 | 7 | 0 | 0.0 | 0.0 | 0.00 | 0.00 | 0.00 | 54 | 1015.8 |
| 20260507031548 | 8 | 0 | 0.0 | 0.0 | 0.00 | 0.00 | 0.00 | 54 | 1015.8 |
| 20260507031044 | 8 | 0 | 0.0 | 0.0 | 0.00 | 0.00 | 0.00 | 51 | 1015.8 |
| 20260507030548 | 8 | 0 | 0.0 | 0.0 | 0.00 | 0.00 | 0.00 | 50 | 1015.9 |
| 20260507030101 | 8 | 0 | 0.0 | 0.0 | 0.00 | 0.00 | 0.00 | 48 | 1015.8 |
| 20260507025546 | 8 | 0 | 0.0 | 0.0 | 0.00 | 0.00 | 0.00 | 49 | 1015.8 |
| 20260507025043 | 8 | 0 | 0.0 | 0.0 | 0.00 | 0.00 | 0.00 | 50 | 1015.8 |
| 20260507024556 | 8 | 0 | 0.0 | 0.0 | 0.00 | 0.00 | 0.00 | 50 | 1015.8 |
| 20260507024041 | 8 | 0 | 0.0 | 0.0 | 0.00 | 0.00 | 0.00 | 51 | 1015.8 |
| 20260507023540 | 9 | 0 | 0.0 | 0.0 | 0.00 | 0.00 | 0.00 | 50 | 1015.7 |
| 20260507023045 | 9 | 0 | 0.0 | 0.0 | 0.00 | 0.00 | 0.00 | 47 | 1015.7 |
| 20260507022542 | 9 | 0 | 0.0 | 0.0 | 0.00 | 0.00 | 0.00 | 45 | 1015.6 |
| 20260507022043 | 10 | 0 | 0.0 | 0.0 | 0.00 | 0.00 | 0.00 | 44 | 1015.6 |
| 20260507021551 | 10 | 0 | 0.0 | 0.0 | 0.00 | 0.00 | 0.00 | 43 | 1015.6 |
| 20260507021043 | 10 | 0 | 0.0 | 0.0 | 0.00 | 0.00 | 0.00 | 43 | 1015.6 |
| 20260507020543 | 10 | 0 | 0.0 | 0.0 | 0.00 | 0.00 | 0.00 | 43 | 1015.6 |
| 20260507020051 | 10 | 0 | 0.0 | 0.0 | 0.00 | 0.00 | 0.00 | 42 | 1015.7 |
| 20260507015542 | 11 | 0 | 0.0 | 0.0 | 0.00 | 0.00 | 0.00 | 40 | 1015.6 |
| 20260507015042 | 11 | 0 | 0.0 | 0.0 | 0.00 | 0.00 | 0.00 | 42 | 1015.6 |
| 20260507014552 | 11 | 0 | 0.0 | 0.0 | 0.00 | 0.00 | 0.00 | 41 | 1015.6 |
| 20260507014042 | 11 | 0 | 0.0 | 0.0 | 0.00 | 0.00 | 0.00 | 38 | 1015.6 |
| 20260507013541 | 12 | 0 | 0.0 | 0.0 | 0.00 | 0.00 | 0.00 | 37 | 1015.5 |
| 20260507013059 | 12 | 0 | 0.0 | 0.0 | 0.00 | 0.00 | 0.00 | 35 | 1015.6 |
| 20260507012542 | 12 | 0 | 0.0 | 0.0 | 0.00 | 0.00 | 0.00 | 33 | 1015.6 |
| 20260507012043 | 13 | 0 | 0.0 | 0.0 | 0.00 | 0.00 | 0.00 | 32 | 1015.6 |
| 20260507011550 | 13 | 0 | 0.0 | 0.0 | 0.00 | 0.00 | 0.00 | 30 | 1015.5 |
| 20260507011042 | 13 | 0 | 0.0 | 0.0 | 0.00 | 0.00 | 0.00 | 29 | 1015.5 |
| 20260507010543 | 13 | 0 | 0.0 | 1.6 | 0.00 | 0.00 | 0.00 | 29 | 1015.6 |
| 20260507010047 | 14 | 0 | 0.0 | 1.6 | 0.00 | 0.00 | 0.00 | 28 | 1015.5 |
| 20260507005542 | 14 | 0 | 0.0 | 1.6 | 0.00 | 0.00 | 0.00 | 28 | 1015.6 |
| 20260507005044 | 14 | 0 | 0.0 | 4.8 | 0.00 | 0.00 | 0.00 | 27 | 1015.6 |
| 20260507004550 | 15 | 221 | 0.0 | 4.8 | 0.00 | 0.00 | 0.00 | 26 | 1015.6 |
| 20260507004042 | 15 | 248 | 0.0 | 4.8 | 0.00 | 0.00 | 0.00 | 27 | 1015.6 |
| 20260507003545 | 15 | 256 | 0.0 | 4.8 | 0.00 | 0.00 | 0.00 | 26 | 1015.6 |
| 20260507003051 | 15 | 0 | 0.0 | 1.6 | 0.00 | 0.00 | 0.00 | 26 | 1015.7 |
| 20260507002544 | 15 | 0 | 0.0 | 1.6 | 0.00 | 0.00 | 0.00 | 25 | 1015.7 |
| 20260507002042 | 16 | 0 | 0.0 | 4.8 | 0.00 | 0.00 | 0.00 | 25 | 1015.8 |
| 20260507001549 | 16 | 0 | 0.0 | 4.8 | 0.00 | 0.00 | 0.00 | 25 | 1015.7 |
| 20260507001042 | 16 | 0 | 0.0 | 6.4 | 0.00 | 0.00 | 0.00 | 26 | 1015.7 |
| 20260507000544 | 16 | 0 | 0.0 | 6.4 | 0.00 | 0.00 | 0.00 | 25 | 1015.8 |
| 20260507000054 | 16 | 237 | 0.0 | 16.1 | 0.00 | 0.00 | 0.00 | 25 | 1015.9 |
| 20260506235542 | 15 | 224 | 3.2 | 16.1 | 0.00 | 0.00 | 0.00 | 25 | 1015.9 |
| 20260506235045 | 15 | 219 | 3.2 | 9.7 | 0.00 | 0.00 | 0.00 | 25 | 1016.0 |
| 20260506234555 | 15 | 217 | 1.6 | 9.7 | 0.00 | 0.00 | 0.00 | 26 | 1016.0 |
| 20260506234043 | 16 | 233 | 1.6 | 6.4 | 0.00 | 0.00 | 0.00 | 25 | 1016.1 |
| 20260506233543 | 16 | 231 | 1.6 | 4.8 | 0.00 | 0.00 | 0.00 | 25 | 1016.0 |
| 20260506233052 | 16 | 226 | 0.0 | 4.8 | 0.00 | 0.00 | 0.00 | 25 | 1016.0 |
| 20260506232542 | 16 | 0 | 0.0 | 4.8 | 0.00 | 0.00 | 0.00 | 26 | 1016.0 |
| 20260506232044 | 16 | 0 | 1.6 | 6.4 | 0.00 | 0.00 | 0.00 | 24 | 1016.0 |
| 20260506231551 | 16 | 267 | 0.0 | 11.3 | 0.00 | 0.00 | 0.00 | 26 | 1016.1 |
| 20260506231042 | 16 | 0 | 3.2 | 11.3 | 0.00 | 0.00 | 0.00 | 26 | 1016.0 |
| 20260506230543 | 16 | 259 | 3.2 | 14.5 | 0.00 | 0.00 | 0.00 | 25 | 1016.2 |
| 20260506230056 | 16 | 310 | 3.2 | 14.5 | 0.00 | 0.00 | 0.00 | 25 | 1016.2 |
| 20260506225545 | 16 | 276 | 1.6 | 9.7 | 0.00 | 0.00 | 0.00 | 24 | 1016.3 |
| 20260506225042 | 16 | 280 | 1.6 | 6.4 | 0.00 | 0.00 | 0.00 | 24 | 1016.3 |
| 20260506224607 | 16 | 289 | 1.6 | 11.3 | 0.00 | 0.00 | 0.00 | 25 | 1016.2 |
| 20260506224042 | 16 | 0 | 0.0 | 14.5 | 0.00 | 0.00 | 0.00 | 26 | 1016.2 |
| 20260506223541 | 16 | 37 | 4.8 | 14.5 | 0.00 | 0.00 | 0.00 | 25 | 1016.3 |
| 20260506223052 | 16 | 59 | 3.2 | 14.5 | 0.00 | 0.00 | 0.00 | 25 | 1016.2 |
| 20260506222542 | 16 | 238 | 3.2 | 14.5 | 0.00 | 0.00 | 0.00 | 27 | 1016.2 |
| 20260506222043 | 16 | 0 | 4.8 | 16.1 | 0.00 | 0.00 | 0.00 | 25 | 1016.4 |
| 20260506221558 | 16 | 245 | 4.8 | 16.1 | 0.00 | 0.00 | 0.00 | 25 | 1016.5 |
| 20260506221042 | 16 | 284 | 3.2 | 12.9 | 0.00 | 0.00 | 0.00 | 24 | 1016.5 |
| 20260506220544 | 16 | 278 | 3.2 | 11.3 | 0.00 | 0.00 | 0.00 | 26 | 1016.5 |
| 20260506220052 | 16 | 271 | 3.2 | 11.3 | 0.00 | 0.00 | 0.00 | 25 | 1016.7 |
| 20260506215542 | 16 | 27 | 3.2 | 11.3 | 0.00 | 0.00 | 0.00 | 27 | 1016.6 |
| 20260506215042 | 15 | 309 | 3.2 | 16.1 | 0.00 | 0.00 | 0.00 | 26 | 1016.7 |
| 20260506214607 | 15 | 264 | 4.8 | 16.1 | 0.00 | 0.00 | 0.00 | 26 | 1016.6 |
| 20260506214042 | 16 | 290 | 4.8 | 12.9 | 0.00 | 0.00 | 0.00 | 25 | 1016.6 |
| 20260506213543 | 16 | 0 | 1.6 | 11.3 | 0.00 | 0.00 | 0.00 | 28 | 1016.7 |
| 20260506213051 | 15 | 283 | 1.6 | 14.5 | 0.00 | 0.00 | 0.00 | 28 | 1016.7 |
| 20260506212542 | 15 | 233 | 3.2 | 14.5 | 0.00 | 0.00 | 0.00 | 27 | 1016.8 |
| 20260506212042 | 15 | 287 | 3.2 | 12.9 | 0.00 | 0.00 | 0.00 | 27 | 1016.9 |
| 20260506211551 | 15 | 288 | 3.2 | 9.7 | 0.00 | 0.00 | 0.00 | 27 | 1017.0 |
| 20260506211044 | 15 | 299 | 1.6 | 12.9 | 0.00 | 0.00 | 0.00 | 28 | 1017.0 |
| 20260506210542 | 15 | 208 | 3.2 | 12.9 | 0.00 | 0.00 | 0.00 | 26 | 1017.1 |
| 20260506210055 | 15 | 241 | 1.6 | 17.7 | 0.00 | 0.00 | 0.00 | 27 | 1017.1 |
| 20260506205541 | 15 | 264 | 3.2 | 17.7 | 0.00 | 0.00 | 0.00 | 30 | 1017.2 |
| 20260506205042 | 16 | 245 | 1.6 | 12.9 | 0.00 | 0.00 | 0.00 | 30 | 1017.1 |
| 20260506204559 | 16 | 56 | 0.0 | 16.1 | 0.00 | 0.00 | 0.00 | 28 | 1017.3 |
| 20260506204041 | 16 | 276 | 6.4 | 16.1 | 0.00 | 0.00 | 0.00 | 27 | 1017.5 |
| 20260506203542 | 16 | 275 | 4.8 | 11.3 | 0.00 | 0.00 | 0.00 | 29 | 1017.5 |
| 20260506203052 | 16 | 0 | 0.0 | 9.7 | 0.00 | 0.00 | 0.00 | 29 | 1017.5 |
| 20260506202542 | 15 | 208 | 3.2 | 12.9 | 0.00 | 0.00 | 0.00 | 29 | 1017.7 |
| 20260506202040 | 15 | 246 | 1.6 | 12.9 | 0.00 | 0.00 | 0.00 | 26 | 1017.7 |
| 20260506201552 | 15 | 275 | 1.6 | 8.0 | 0.00 | 0.00 | 0.00 | 29 | 1017.8 |
| 20260506201042 | 15 | 274 | 0.0 | 9.7 | 0.00 | 0.00 | 0.00 | 30 | 1017.7 |
| 20260506200544 | 15 | 324 | 4.8 | 16.1 | 0.00 | 0.00 | 0.00 | 29 | 1017.7 |
| 20260506200051 | 14 | 0 | 3.2 | 16.1 | 0.00 | 0.00 | 0.00 | 33 | 1017.8 |
| 20260506195542 | 15 | 287 | 6.4 | 16.1 | 0.00 | 0.00 | 0.00 | 28 | 1018.0 |
| 20260506195044 | 15 | 140 | 4.8 | 14.5 | 0.00 | 0.00 | 0.00 | 27 | 1017.9 |
| 20260506194600 | 15 | 222 | 4.8 | 17.7 | 0.00 | 0.00 | 0.00 | 29 | 1018.0 |
| 20260506194049 | 15 | 287 | 6.4 | 19.3 | 0.00 | 0.00 | 0.00 | 28 | 1018.0 |
| 20260506193541 | 14 | 282 | 4.8 | 19.3 | 0.00 | 0.00 | 0.00 | 30 | 1018.0 |
| 20260506193049 | 13 | 251 | 4.8 | 14.5 | 0.00 | 0.00 | 0.00 | 30 | 1018.0 |
| 20260506192542 | 13 | 284 | 3.2 | 9.7 | 0.00 | 0.00 | 0.00 | 31 | 1018.1 |
| 20260506192042 | 13 | 347 | 3.2 | 17.7 | 0.00 | 0.00 | 0.00 | 29 | 1018.1 |
| 20260506191551 | 14 | 49 | 4.8 | 17.7 | 0.00 | 0.00 | 0.00 | 32 | 1018.0 |
| 20260506191042 | 14 | 306 | 3.2 | 17.7 | 0.00 | 0.00 | 0.00 | 30 | 1017.9 |
| 20260506190542 | 13 | 306 | 3.2 | 17.7 | 0.00 | 0.00 | 0.00 | 29 | 1017.9 |
| 20260506190052 | 14 | 295 | 4.8 | 11.3 | 0.00 | 0.00 | 0.00 | 29 | 1018.1 |
| 20260506185542 | 14 | 291 | 4.8 | 14.5 | 0.00 | 0.00 | 0.00 | 30 | 1018.1 |
| 20260506185042 | 13 | 286 | 4.8 | 14.5 | 0.00 | 0.00 | 0.00 | 31 | 1018.2 |
| 20260506184551 | 14 | 309 | 3.2 | 12.9 | 0.00 | 0.00 | 0.00 | 30 | 1018.3 |
| 20260506184042 | 14 | 347 | 1.6 | 16.1 | 0.00 | 0.00 | 0.00 | 31 | 1018.3 |
| 20260506183542 | 14 | 266 | 4.8 | 16.1 | 0.00 | 0.00 | 0.00 | 32 | 1018.5 |
| 20260506183100 | 14 | 277 | 3.2 | 12.9 | 0.00 | 0.00 | 0.00 | 30 | 1018.5 |
| 20260506182542 | 13 | 269 | 3.2 | 12.9 | 0.00 | 0.00 | 0.00 | 34 | 1018.5 |
| 20260506182044 | 13 | 200 | 1.6 | 14.5 | 0.00 | 0.00 | 0.00 | 37 | 1018.5 |
| 20260506181555 | 12 | 255 | 0.0 | 14.5 | 0.00 | 0.00 | 0.00 | 34 | 1018.5 |
| 20260506181045 | 13 | 293 | 3.2 | 12.9 | 0.00 | 0.00 | 0.00 | 32 | 1018.6 |
| 20260506180545 | 13 | 20 | 1.6 | 9.7 | 0.00 | 0.00 | 0.00 | 33 | 1018.5 |
| 20260506180055 | 13 | 266 | 3.2 | 11.3 | 0.00 | 0.00 | 0.00 | 33 | 1018.7 |
| 20260506175545 | 12 | 265 | 1.6 | 17.7 | 0.00 | 0.00 | 0.00 | 36 | 1018.8 |
| 20260506175049 | 12 | 338 | 3.2 | 17.7 | 0.00 | 0.00 | 0.00 | 33 | 1018.8 |
| 20260506174555 | 13 | 268 | 1.6 | 16.1 | 0.00 | 0.00 | 0.00 | 33 | 1018.9 |
| 20260506174042 | 13 | 274 | 3.2 | 16.1 | 0.00 | 0.00 | 0.00 | 33 | 1018.9 |
| 20260506173544 | 12 | 274 | 4.8 | 11.3 | 0.00 | 0.00 | 0.00 | 35 | 1019.1 |
| 20260506173054 | 13 | 79 | 1.6 | 9.7 | 0.00 | 0.00 | 0.00 | 33 | 1019.0 |
| 20260506172545 | 12 | 38 | 3.2 | 9.7 | 0.00 | 0.00 | 0.00 | 35 | 1019.1 |
| 20260506172045 | 12 | 58 | 0.0 | 11.3 | 0.00 | 0.00 | 0.00 | 34 | 1019.2 |
| 20260506171559 | 12 | 278 | 3.2 | 11.3 | 0.00 | 0.00 | 0.00 | 35 | 1019.3 |
| 20260506171042 | 12 | 11 | 1.6 | 9.7 | 0.00 | 0.00 | 0.00 | 37 | 1019.2 |
| 20260506170542 | 12 | 275 | 3.2 | 9.7 | 0.00 | 0.00 | 0.00 | 36 | 1019.3 |
| 20260506170059 | 12 | 278 | 0.0 | 9.7 | 0.00 | 0.00 | 0.00 | 34 | 1019.3 |
| 20260506165545 | 12 | 26 | 0.0 | 9.7 | 0.00 | 0.00 | 0.00 | 35 | 1019.4 |
| 20260506165042 | 12 | 224 | 1.6 | 16.1 | 0.00 | 0.00 | 0.00 | 36 | 1019.5 |
| 20260506164558 | 12 | 55 | 3.2 | 16.1 | 0.00 | 0.00 | 0.00 | 36 | 1019.4 |
| 20260506164044 | 12 | 291 | 3.2 | 16.1 | 0.00 | 0.00 | 0.00 | 34 | 1019.5 |
| 20260506163544 | 12 | 28 | 1.6 | 14.5 | 0.00 | 0.00 | 0.00 | 40 | 1019.4 |
| 20260506163105 | 11 | 248 | 0.0 | 14.5 | 0.00 | 0.00 | 0.00 | 36 | 1019.5 |
| 20260506162542 | 12 | 272 | 4.8 | 14.5 | 0.00 | 0.00 | 0.00 | 35 | 1019.5 |
| 20260506162047 | 12 | 37 | 0.0 | 4.8 | 0.00 | 0.00 | 0.00 | 35 | 1019.4 |
| 20260506161606 | 12 | 49 | 1.6 | 8.0 | 0.00 | 0.00 | 0.00 | 41 | 1019.3 |
| 20260506161045 | 11 | 94 | 1.6 | 9.7 | 0.00 | 0.00 | 0.00 | 36 | 1019.3 |
| 20260506160542 | 11 | 274 | 3.2 | 9.7 | 0.00 | 0.00 | 0.00 | 35 | 1019.4 |
| 20260506160053 | 11 | 263 | 1.6 | 6.4 | 0.00 | 0.00 | 0.00 | 37 | 1019.4 |
| 20260506155542 | 11 | 0 | 0.0 | 14.5 | 0.00 | 0.00 | 0.00 | 39 | 1019.4 |
| 20260506155042 | 11 | 281 | 3.2 | 14.5 | 0.00 | 0.00 | 0.00 | 35 | 1019.4 |
| 20260506154610 | 11 | 33 | 4.8 | 14.5 | 0.00 | 0.00 | 0.00 | 38 | 1019.3 |
| 20260506154045 | 11 | 267 | 1.6 | 12.9 | 0.00 | 0.00 | 0.00 | 36 | 1019.2 |
| 20260506153544 | 11 | 64 | 1.6 | 9.7 | 0.00 | 0.00 | 0.00 | 40 | 1019.2 |
| 20260506153055 | 11 | 259 | 1.6 | 9.7 | 0.00 | 0.00 | 0.00 | 37 | 1019.3 |
| 20260506152544 | 11 | 266 | 0.0 | 9.7 | 0.00 | 0.00 | 0.00 | 38 | 1019.2 |
| 20260506152116 | 11 | 0 | 1.6 | 9.7 | 0.00 | 0.00 | 0.00 | 37 | 1019.3 |
| 20260506151555 | 11 | 270 | 0.0 | 8.0 | 0.00 | 0.00 | 0.00 | 38 | 1019.3 |
| 20260506151044 | 11 | 59 | 0.0 | 9.7 | 0.00 | 0.00 | 0.00 | 40 | 1019.3 |
| 20260506150547 | 11 | 269 | 1.6 | 9.7 | 0.00 | 0.00 | 0.00 | 40 | 1019.3 |
| 20260506150100 | 10 | 265 | 1.6 | 8.0 | 0.00 | 0.00 | 0.00 | 40 | 1019.3 |
| 20260506145547 | 10 | 34 | 3.2 | 8.0 | 0.00 | 0.00 | 0.00 | 40 | 1019.4 |
| 20260506145043 | 10 | 0 | 1.6 | 8.0 | 0.00 | 0.00 | 0.00 | 40 | 1019.3 |
| 20260506144602 | 10 | 0 | 1.6 | 8.0 | 0.00 | 0.00 | 0.00 | 40 | 1019.3 |
| 20260506144045 | 10 | 278 | 1.6 | 6.4 | 0.00 | 0.00 | 0.00 | 40 | 1019.4 |
| 20260506143545 | 10 | 0 | 0.0 | 4.8 | 0.00 | 0.00 | 0.00 | 42 | 1019.3 |
| 20260506143055 | 10 | 0 | 0.0 | 4.8 | 0.00 | 0.00 | 0.00 | 43 | 1019.3 |
| 20260506142547 | 10 | 0 | 0.0 | 3.2 | 0.00 | 0.00 | 0.00 | 43 | 1019.4 |
| 20260506142046 | 9 | 65 | 0.0 | 6.4 | 0.00 | 0.00 | 0.00 | 45 | 1019.4 |
| 20260506141550 | 9 | 0 | 0.0 | 6.4 | 0.00 | 0.00 | 0.00 | 45 | 1019.3 |
| 20260506141045 | 9 | 0 | 1.6 | 4.8 | 0.00 | 0.00 | 0.00 | 46 | 1019.2 |
| 20260506140545 | 9 | 0 | 0.0 | 4.8 | 0.00 | 0.00 | 0.00 | 49 | 1019.2 |
| 20260506140058 | 8 | 256 | 0.0 | 3.2 | 0.00 | 0.00 | 0.00 | 48 | 1019.2 |
| 20260506135544 | 8 | 0 | 0.0 | 4.8 | 0.00 | 0.00 | 0.00 | 48 | 1019.1 |